Location: Doschendorf
(50.0069°N, 11.0602°E)
Time: 23:56:16
(UTC+00:00)

Cosmos 1634 Rocket - Pass Details

Date: 17 November 2019
Orbit: 959 x 993 km, 82.9° (Epoch: 07 December)

Event Time Altitude Azimuth Distance (km) Brightness Sun altitude
Rises 18:03:09 0° 350° (N) 3,671 7.1 -24.4°
Reaches altitude 10° 18:05:41 10° 351° (N) 2,716 6.4 -24.8°
Maximum altitude 18:11:55 84° 81° (E) 974 3.8 -25.8°
Drops below altitude 10° 18:18:04 10° 169° (S) 2,686 6.2 -26.8°
Sets 18:20:33 0° 171° (S) 3,628 6.9 -27.2°
